Theta_e
336 335 333 331 329 329 328 329 330 332 333 332 331 332 332 332 332 332 331 329 328 329 330 329 327 327 328 328 328 327 327 328 327 327 326 326 326 326 324 323 323 323 324 326 326 326 327 327 328 327 327 327 326 327 327 326 326 326 326 326 326 326 326 327 327 325 325 326 327 328 328 328 328 327 326 326 326 325 325 326 327 327 328 327 326
334 333 331 330 329 329 328 328 330 331 333 332 331 331 331 332 332 331 331 330 329 329 329 328 325 324 325 326 326 325 326 327 326 327 326 325 326 325 324 324 324 324 324 325 325 326 326 327 327 327 326 327 327 327 326 325 325 326 327 326 326 326 326 328 328 326 325 325 326 327 328 328 328 328 327 326 326 325 325 326 326 327 327 325 324
332 331 330 329 328 328 328 328 328 331 332 332 331 331 330 331 331 331 330 330 328 327 327 327 325 323 323 324 325 326 327 326 325 325 325 323 323 324 325 325 326 326 325 326 326 326 327 327 327 327 327 327 326 326 325 325 326 326 327 327 326 326 327 328 328 328 326 325 326 327 328 328 327 327 327 327 327 326 325 325 325 326 326 324 324
332 331 330 330 329 328 328 328 329 331 332 332 332 331 329 329 330 330 330 329 327 326 325 325 325 324 324 325 326 327 327 326 322 318 318 318 317 320 323 324 324 325 325 326 326 326 326 326 326 325 325 325 325 325 325 325 325 326 327 327 326 326 327 328 328 328 327 325 326 327 328 327 327 327 327 327 327 327 325 324 325 326 326 325 325
332 331 330 330 329 328 329 329 329 331 332 333 333 332 330 329 329 330 330 329 328 327 325 325 327 327 327 327 328 328 327 324 317 312 313 314 316 318 320 320 320 320 320 321 322 321 321 322 321 321 321 322 323 324 324 324 324 325 325 325 325 326 327 328 327 328 327 326 326 327 327 327 327 327 327 327 326 326 325 325 326 326 325 326 326
332 331 330 329 329 329 330 330 330 332 333 333 333 332 331 329 330 330 329 328 327 326 326 327 328 327 326 326 326 325 324 321 314 310 312 314 317 319 319 319 318 318 317 316 316 317 316 316 317 318 319 319 321 322 322 321 321 322 323 325 325 326 326 326 326 327 328 327 327 326 326 327 327 326 325 326 326 325 325 325 325 325 325 326 326
332 331 330 329 330 331 331 331 331 332 334 333 333 332 331 330 330 329 328 326 326 327 328 328 327 326 325 324 323 321 319 321 317 312 311 313 316 320 321 321 319 319 319 316 316 317 317 318 318 318 319 320 321 322 322 321 321 320 321 323 324 325 326 325 324 326 327 327 327 326 326 326 326 325 324 325 325 326 325 325 325 325 325 325 325
332 331 330 330 331 331 331 331 332 333 333 333 333 332 331 330 328 328 327 324 326 329 328 327 327 327 327 324 323 321 319 321 319 315 314 314 317 321 323 323 322 322 319 316 317 319 320 322 321 320 320 321 322 322 322 322 321 321 322 323 323 325 325 325 324 325 326 326 326 326 326 326 325 325 325 324 324 325 325 325 325 325 325 324 324
331 330 330 331 332 332 331 331 332 332 332 332 332 332 331 329 327 327 328 326 327 329 328 328 328 328 327 325 325 323 317 316 315 315 318 319 321 323 323 323 323 323 320 318 318 319 321 323 323 321 321 321 321 320 319 320 321 322 323 323 324 325 325 325 325 325 325 325 325 325 325 325 325 326 325 324 324 325 325 325 325 325 325 324 324
331 331 332 332 331 331 331 331 331 332 331 332 332 331 330 329 328 328 329 328 328 328 328 328 328 327 326 327 327 323 316 315 315 316 319 322 323 323 323 323 323 322 320 318 320 320 320 323 322 321 321 320 319 317 316 319 322 323 322 324 324 324 324 324 324 325 325 325 325 325 324 325 325 325 325 325 324 324 325 325 324 324 324 323 323
332 332 332 332 331 331 331 331 331 332 332 331 332 331 330 329 329 328 329 329 329 328 328 328 327 327 327 328 327 319 316 318 317 317 319 321 322 322 324 323 322 321 316 315 321 321 320 322 322 321 319 315 314 314 315 318 321 322 323 324 324 323 323 324 324 324 323 324 324 324 324 324 324 324 325 325 324 324 324 324 324 323 322 321 320
333 332 332 332 332 331 331 331 331 332 332 332 332 331 330 330 330 330 330 329 329 328 329 328 328 328 328 329 323 315 315 318 317 318 319 321 322 322 321 320 319 317 310 313 321 322 320 321 320 319 316 312 312 313 314 316 318 320 322 324 323 323 322 322 323 322 322 323 323 323 323 324 324 324 324 324 324 324 323 323 322 321 320 319 319
331 331 332 332 332 332 332 331 331 331 331 331 331 330 329 330 330 331 329 328 328 329 329 329 329 328 328 325 319 315 316 317 318 320 318 318 320 318 317 316 314 311 308 313 321 321 320 320 319 316 312 310 310 310 311 314 316 319 322 323 323 322 321 320 321 321 321 322 322 323 323 323 323 323 324 324 324 323 322 321 321 320 319 319 318
329 331 332 332 333 333 332 332 331 330 330 330 329 328 328 329 330 331 329 328 328 328 329 329 328 327 326 323 320 321 320 316 316 317 313 313 316 317 317 316 313 311 309 311 318 321 319 318 315 312 310 309 307 307 308 309 312 316 320 321 321 321 320 319 319 320 320 321 321 322 322 322 323 323 324 324 323 322 321 320 320 319 319 319 319
329 332 333 333 333 332 331 331 331 330 330 329 328 328 328 329 330 330 329 328 328 328 328 326 324 326 327 326 325 325 323 318 314 312 311 314 318 319 318 317 314 312 308 307 311 316 316 314 312 310 309 308 306 306 306 306 307 310 315 318 317 317 318 318 318 319 319 320 320 321 322 322 322 322 323 323 322 321 320 319 319 319 319 320 319
330 332 334 333 332 331 331 330 330 330 330 330 330 329 327 328 329 328 326 326 326 327 326 323 323 327 329 328 328 328 324 317 311 310 314 317 319 319 317 315 313 309 307 306 307 309 311 310 310 309 308 307 307 306 306 306 306 306 309 311 311 310 311 313 315 316 317 318 320 321 322 322 321 321 321 321 321 320 320 319 318 317 318 319 319
331 332 332 332 332 331 331 330 329 330 331 331 329 327 326 327 328 327 324 323 325 326 325 323 325 329 329 328 329 327 321 313 309 311 316 319 319 319 316 312 310 307 306 306 305 306 307 308 308 307 307 307 306 305 305 305 305 305 306 306 305 306 306 307 310 312 315 318 320 321 321 321 321 321 320 320 320 320 320 320 319 318 316 317 318
332 332 331 332 332 331 331 330 330 330 331 330 328 325 325 325 326 327 325 323 324 325 324 324 327 329 329 328 327 324 318 312 309 311 315 320 321 320 316 311 309 308 307 306 305 305 305 306 306 306 306 305 304 304 304 304 304 304 304 305 305 305 305 305 306 311 317 319 320 321 320 319 319 321 321 319 319 319 320 320 319 318 317 316 315
333 333 332 332 333 333 332 332 331 331 331 330 328 326 326 324 324 326 326 324 324 325 325 325 328 328 328 326 325 323 320 314 311 312 318 322 321 319 316 313 311 308 306 304 304 305 304 305 305 305 305 304 304 304 304 304 305 305 306 307 308 307 307 306 306 309 315 319 320 320 319 317 317 318 318 316 316 317 318 319 319 318 318 317 314
332 332 333 332 333 334 332 332 332 332 332 331 330 329 328 326 325 326 326 324 324 326 326 326 327 327 327 325 324 324 321 316 314 317 321 322 320 319 317 315 312 309 306 304 304 304 304 305 305 304 305 304 305 305 305 306 307 308 309 309 309 309 309 309 308 308 310 313 315 317 318 317 317 318 317 315 314 314 315 317 318 318 319 317 314
329 330 332 332 333 334 333 333 333 332 332 331 330 331 331 329 327 326 325 324 324 326 326 325 326 327 326 325 325 324 321 318 319 322 323 321 319 319 319 316 313 310 307 304 304 306 306 307 306 306 306 306 307 307 307 308 308 309 309 309 309 309 309 309 310 309 309 309 310 313 317 318 318 318 317 314 314 313 313 315 316 318 319 316 313
327 327 329 330 332 333 332 331 332 331 331 331 331 331 331 330 329 327 325 324 325 326 324 324 325 325 325 325 325 323 322 321 322 322 321 320 320 320 319 318 314 311 309 308 307 308 310 309 309 309 309 309 309 308 309 308 309 310 311 311 310 309 310 309 309 309 309 309 309 311 314 316 316 315 314 314 313 313 313 314 315 316 316 314 313
326 326 326 327 328 329 327 327 329 330 330 330 330 330 330 330 329 328 327 324 324 325 324 324 325 324 324 325 324 323 323 323 322 320 319 320 321 319 318 317 313 310 312 313 310 309 311 310 309 310 311 313 314 312 312 311 309 310 313 315 314 314 313 313 311 310 309 310 310 311 313 313 313 313 313 313 314 314 314 314 315 315 314 313 314
327 327 326 326 326 327 327 327 328 328 328 328 329 330 330 330 329 328 327 325 324 325 325 326 326 325 325 326 325 323 323 323 322 321 320 320 320 319 318 317 313 309 311 315 312 310 310 308 309 311 313 316 318 316 314 314 312 313 315 317 318 318 317 316 316 314 312 311 311 311 312 312 313 313 313 313 313 314 314 314 315 314 314 314 314
327 327 327 327 327 327 327 327 327 326 326 327 327 327 328 329 328 327 328 328 326 326 327 326 326 326 326 326 325 323 322 321 322 322 322 321 320 321 320 317 313 309 308 312 312 310 310 308 309 312 313 316 316 314 313 314 315 315 316 317 318 318 317 317 318 317 316 315 315 313 312 311 312 313 313 313 313 313 313 314 314 314 314 315 314
325 327 327 327 327 327 327 327 327 326 325 326 326 326 326 326 326 327 327 328 327 327 327 326 325 325 325 323 323 322 319 319 321 321 321 320 318 319 319 318 316 311 307 309 311 310 310 310 311 314 316 316 315 314 314 315 316 316 316 317 318 318 317 317 318 318 319 319 318 317 316 313 312 312 312 313 313 313 314 314 314 314 314 315 315
323 324 325 326 326 326 326 326 326 326 325 324 325 325 324 323 323 325 326 326 326 326 326 326 325 324 323 322 322 322 319 320 321 317 316 315 314 314 314 315 317 313 307 308 310 310 311 311 312 315 317 318 318 318 318 318 317 317 317 318 318 318 318 317 318 319 320 320 320 319 319 317 315 313 313 314 313 313 314 314 314 314 315 316 316
322 323 324 325 325 325 326 325 326 326 325 324 324 324 323 321 321 323 324 324 324 324 325 326 325 324 323 323 323 322 321 321 320 316 314 314 315 313 311 312 315 313 308 309 309 309 310 311 313 316 318 319 320 320 320 320 319 318 318 319 318 317 318 318 318 319 320 321 321 320 319 319 318 317 317 317 316 316 315 315 315 315 315 316 316
318 319 321 323 324 324 325 324 324 325 325 325 325 325 324 323 322 322 322 323 323 323 323 324 325 325 325 323 321 321 321 319 318 317 317 317 315 311 310 312 314 311 309 310 311 311 311 311 312 315 318 320 320 319 320 320 320 319 318 319 319 318 317 317 318 318 318 319 319 319 318 318 319 319 319 319 318 318 317 316 315 315 315 315 315
312 313 316 318 319 321 322 323 323 324 324 325 324 324 324 324 324 323 323 323 323 323 322 323 324 324 325 323 321 320 320 317 317 317 318 318 316 313 312 312 311 311 311 311 313 315 315 313 312 315 319 320 320 319 319 319 319 318 318 319 319 318 318 317 317 317 317 317 317 317 317 318 319 319 319 319 319 319 318 317 316 316 315 315 315
309 310 312 313 314 316 317 319 320 322 323 324 323 323 324 324 324 324 323 323 323 323 324 324 323 323 323 322 320 319 319 318 317 317 317 319 319 318 317 314 312 313 315 315 315 317 318 317 315 316 319 320 320 320 319 319 319 318 317 318 319 319 318 317 317 317 316 316 317 317 317 318 318 318 319 319 319 319 318 317 317 316 316 316 316
308 309 310 311 311 312 313 313 316 319 322 323 323 323 323 324 323 323 323 323 323 323 323 324 324 323 322 321 320 319 319 319 319 318 318 320 320 320 319 318 317 317 318 318 318 318 318 318 318 319 320 320 320 320 320 319 319 318 317 317 318 319 319 317 316 316 316 316 317 318 318 318 317 317 318 318 318 318 318 318 316 315 313 312 311
307 308 309 310 309 310 310 310 312 316 319 321 322 322 322 323 322 322 322 323 323 323 324 324 325 324 324 323 322 321 321 322 322 321 320 320 321 321 321 321 320 320 320 320 319 319 319 319 319 320 320 319 319 320 320 319 318 317 317 317 317 318 318 317 316 315 315 316 318 318 318 317 316 316 317 318 318 317 317 315 312 309 307 305 305
307 308 308 308 308 309 309 309 310 312 316 319 322 322 322 322 321 321 321 321 322 322 323 324 323 323 323 324 324 323 323 323 323 322 321 320 320 321 322 321 322 321 321 321 320 320 320 319 320 320 320 319 319 320 320 319 318 317 317 316 316 317 316 316 316 315 316 317 318 318 317 315 314 314 315 316 315 313 311 309 307 305 304 303 303
308 308 308 309 309 309 309 309 309 309 312 315 317 318 319 319 319 320 320 319 319 320 322 322 322 322 323 322 323 323 323 322 321 321 321 321 321 322 322 321 322 322 321 321 321 320 320 320 320 320 319 319 319 319 319 318 318 318 317 316 316 317 316 316 315 315 316 317 317 316 315 313 312 312 311 311 310 309 308 307 306 304 303 302 303
309 309 308 309 309 309 309 309 308 308 309 310 311 312 312 313 314 315 315 314 315 317 318 319 320 320 321 321 321 322 321 321 321 321 321 322 322 322 321 321 321 321 321 321 321 321 321 321 320 320 319 318 319 319 319 318 318 317 317 317 317 317 316 315 315 315 316 316 316 315 314 313 313 312 310 309 309 308 308 308 305 303 302 302 303
309 310 309 309 309 309 309 309 308 309 309 309 309 309 309 310 310 310 310 310 311 312 313 314 316 317 318 319 320 321 321 321 320 320 320 320 320 320 320 321 320 320 321 320 320 320 321 321 320 319 319 318 318 318 318 318 317 317 317 317 317 316 316 316 315 315 315 316 315 315 315 314 314 313 311 311 310 308 307 306 303 302 302 302 302
307 308 309 309 309 309 309 309 309 308 309 310 310 310 310 310 309 309 309 309 309 309 310 311 312 313 314 316 317 317 318 320 319 319 318 317 317 318 318 319 319 319 319 319 319 319 319 319 318 318 317 317 317 317 317 316 316 316 317 317 316 316 316 315 315 315 315 315 315 315 315 315 315 314 313 312 310 306 304 303 301 301 301 301 302
304 306 306 307 308 308 308 309 309 309 309 310 310 310 311 311 311 310 310 310 309 309 309 309 309 310 311 312 312 313 314 315 315 316 317 317 317 316 316 316 316 316 316 317 316 316 316 316 316 316 316 316 316 316 316 315 315 315 315 315 315 315 314 315 316 316 315 315 315 315 315 315 315 314 312 309 305 303 301 301 301 301 301 301 303
302 303 303 304 304 305 306 307 307 307 307 309 310 311 311 311 311 311 310 310 309 309 309 309 309 309 310 310 311 311 311 312 312 313 315 316 316 315 314 314 314 314 314 314 314 313 313 313 313 313 315 315 315 314 314 314 313 313 312 312 311 311 312 314 315 315 315 315 314 313 312 312 311 309 306 303 301 301 301 300 300 300 300 301 303
301 301 301 301 301 301 302 302 302 302 303 305 307 308 309 310 310 310 310 309 309 309 309 309 309 309 309 310 310 310 310 311 311 312 312 313 313 314 314 314 315 314 314 314 314 313 312 312 311 312 313 314 312 311 312 312 312 311 309 306 306 308 312 314 314 313 312 311 310 309 308 305 304 304 302 302 302 302 301 300 300 299 299 300 302
300 300 300 300 300 300 300 300 300 299 299 299 300 302 304 304 305 307 308 308 308 309 309 309 310 310 310 309 309 310 310 310 310 311 311 311 312 312 312 313 313 312 313 314 314 313 313 313 313 312 313 313 312 310 310 309 309 308 305 302 304 310 313 313 313 312 312 311 309 309 306 304 304 304 303 304 304 302 301 301 300 299 299 299 300
298 298 298 298 298 299 299 299 298 298 297 296 297 299 299 299 300 301 301 302 304 306 306 307 308 309 309 309 309 309 309 310 310 310 310 311 311 311 311 311 311 311 311 311 312 312 312 312 312 313 312 312 312 312 310 307 305 303 302 301 304 310 313 313 312 312 313 312 310 309 307 306 306 306 306 306 304 301 300 300 299 299 299 298 299
296 296 296 297 297 297 297 297 296 296 296 296 296 297 297 297 297 298 298 298 299 300 301 302 302 304 305 306 306 307 307 307 307 308 309 309 309 309 310 310 311 311 310 310 310 311 311 311 311 311 312 313 313 312 311 308 304 302 301 301 303 306 309 311 311 312 312 312 311 309 308 308 308 307 307 306 303 300 299 299 298 298 298 298 299
296 296 296 296 297 297 297 297 297 297 297 297 297 297 297 297 297 297 297 297 297 297 298 298 299 299 300 301 302 304 304 303 303 304 305 305 305 306 307 307 308 309 310 309 310 310 310 310 310 310 311 311 312 313 312 310 308 306 303 302 302 303 303 305 307 309 310 312 311 309 309 308 308 307 307 305 301 299 299 298 298 298 298 298 298
296 296 296 296 297 297 297 297 298 298 298 297 297 297 297 297 297 297 297 297 297 297 297 297 297 297 297 298 298 298 298 299 299 299 300 301 302 303 304 304 305 307 307 308 308 308 309 309 309 309 310 310 311 313 312 310 309 309 308 305 303 302 302 302 304 307 310 312 311 310 309 308 308 307 305 302 299 299 299 298 298 298 298 298 299
296 296 297 297 298 298 298 298 298 298 298 298 297 297 297 297 297 297 297 297 297 297 297 297 297 297 296 296 297 296 297 297 297 297 297 297 298 299 301 302 303 304 306 306 307 307 307 308 308 309 310 309 310 311 310 309 309 310 310 308 305 303 303 302 302 306 309 310 310 310 309 307 307 306 303 300 299 299 299 298 297 297 298 298 298
297 298 298 298 298 298 298 298 298 298 298 298 298 297 297 297 297 297 297 297 297 297 296 296 296 296 296 296 296 296 296 296 297 297 297 297 297 298 299 300 301 302 303 305 305 305 305 306 307 308 309 309 309 309 309 309 310 310 310 309 307 306 305 303 302 304 307 308 309 310 308 306 306 305 301 299 299 299 298 298 298 298 298 298 298
297 298 298 298 298 298 298 297 298 297 297 297 297 297 297 297 297 297 297 297 297 297 296 296 296 296 296 296 296 296 296 296 296 297 297 297 298 298 299 299 300 300 301 302 303 303 303 304 304 305 306 308 308 309 309 309 309 310 310 308 306 305 304 302 302 304 306 307 308 308 306 306 305 302 299 298 298 298 298 298 298 299 299 298 298
297 297 297 297 297 297 297 297 297 297 297 297 297 297 297 297 297 297 297 296 296 296 296 296 296 296 296 296 295 295 295 295 296 296 296 297 297 298 298 299 299 300 300 300 301 301 302 302 302 302 303 304 306 307 307 307 308 308 308 308 307 305 304 303 303 303 303 304 305 306 306 305 303 301 300 299 299 299 299 300 300 300 299 298 299
297 297 297 297 297 297 297 297 297 297 297 297 297 297 296 296 296 296 295 295 295 295 295 295 295 295 295 295 295 295 295 295 295 295 295 295 296 297 297 298 299 299 300 300 300 301 301 301 302 302 301 302 304 305 305 305 305 304 305 306 306 305 305 305 305 303 302 301 302 304 304 303 302 301 301 300 299 299 300 301 301 300 299 299 299
Wind_Speed
26 25 23 21 19 19 20 20 23 26 25 24 27 28 29 30 32 31 29 28 28 26 25 26 25 23 23 22 21 20 18 17 16 14 14 13 13 14 14 12 10 9 8 7 8 7 7 7 8 8 8 7 7 7 7 6 7 7 7 8 8 8 8 8 7 7 5 6 10 11 9 8 8 6 6 7 8 7 7 7 8 9 9 9 8
31 28 25 24 23 22 21 22 25 28 27 26 27 28 29 31 32 32 30 29 28 26 25 25 24 22 22 23 21 19 17 17 17 16 15 14 13 12 11 9 8 8 9 9 9 8 8 9 9 9 9 8 8 8 8 7 7 6 6 8 8 8 9 8 8 8 8 7 9 13 11 8 6 6 6 7 7 6 6 6 7 8 9 8 8
33 30 28 27 26 24 22 22 24 27 27 26 27 27 29 32 32 32 31 29 27 24 23 22 21 20 20 20 20 19 17 17 16 15 15 14 12 10 9 9 9 10 9 9 10 10 10 11 11 10 9 9 9 9 9 9 8 6 6 7 8 9 9 10 9 8 9 8 9 11 11 10 8 7 8 8 7 5 5 5 6 8 8 7 7
34 32 30 28 26 25 23 24 26 27 27 27 28 28 30 32 31 31 30 28 26 24 22 20 19 18 17 18 19 19 18 16 14 14 14 13 12 11 10 9 9 9 9 10 11 11 11 11 10 10 10 9 9 9 9 9 8 7 7 7 8 8 9 10 10 9 8 9 11 11 12 12 9 8 9 9 7 7 6 6 5 6 7 7 7
36 34 32 28 26 26 26 26 27 27 27 28 29 29 30 30 30 30 28 26 25 24 22 22 21 21 20 20 20 19 19 16 14 14 12 12 12 12 11 10 9 9 9 9 10 10 10 10 9 9 9 10 9 9 8 9 9 8 8 7 7 7 8 9 10 11 9 9 11 11 11 9 9 11 11 9 8 8 8 7 5 5 5 6 6
34 33 31 28 27 29 29 28 28 28 28 29 29 29 29 29 28 28 27 26 25 24 25 25 25 25 24 24 22 20 19 16 14 13 12 12 12 11 10 9 8 7 6 7 9 9 10 10 9 8 9 9 9 8 7 7 7 7 7 7 6 7 8 8 10 12 11 9 10 11 9 7 11 15 13 10 9 8 8 9 7 6 6 6 6
33 31 30 30 31 33 32 31 30 29 30 30 29 29 29 28 27 28 27 26 27 26 27 27 26 26 26 24 21 19 17 16 12 11 12 13 13 11 9 9 7 5 5 8 11 13 13 12 10 9 9 8 8 7 6 5 4 5 7 7 6 7 8 7 9 12 13 12 10 11 9 7 10 13 12 13 13 10 8 10 9 8 8 8 6
33 32 31 31 34 34 33 32 30 29 30 30 30 30 30 29 28 28 27 27 28 28 28 27 26 26 25 22 19 17 16 16 14 14 15 14 13 12 11 11 9 6 6 10 13 15 14 13 11 10 9 8 8 7 6 5 4 6 8 8 8 8 8 7 8 11 13 13 12 12 10 10 10 9 9 11 15 15 11 11 12 11 9 8 6
30 29 30 32 34 33 30 30 29 28 28 29 31 32 31 30 29 28 28 27 29 29 27 26 24 23 22 20 19 17 16 18 18 18 18 16 14 14 14 13 11 8 7 9 12 13 13 13 12 10 8 8 7 6 5 6 8 9 10 9 10 11 10 9 9 10 11 12 13 13 13 12 10 8 9 10 13 17 14 13 15 14 12 10 8
28 25 26 29 31 28 27 28 29 28 28 29 31 32 31 30 29 29 28 29 30 29 27 25 23 22 20 19 19 18 18 20 20 21 20 19 17 16 14 13 12 9 7 10 12 10 12 13 12 10 8 7 5 5 7 9 11 12 11 11 12 14 15 14 14 13 12 11 10 11 12 12 12 11 12 11 12 15 15 16 16 15 15 14 11
28 24 23 26 27 25 28 29 28 29 29 30 31 32 31 29 29 29 29 31 31 29 26 24 22 21 21 20 18 18 19 21 22 23 21 20 19 17 15 14 12 9 9 12 13 10 11 13 11 9 7 6 7 8 10 12 12 13 13 13 15 16 17 17 17 15 14 13 11 9 9 10 11 11 12 12 13 16 19 20 18 17 17 16 14
26 23 22 25 27 26 28 28 28 30 30 30 32 32 31 30 29 29 31 32 31 28 26 25 23 22 22 21 20 20 20 20 21 21 20 20 19 18 16 15 13 10 11 15 15 12 12 13 11 8 6 8 10 11 11 13 13 14 15 16 16 16 16 16 16 15 14 14 13 10 9 8 8 9 9 10 11 16 22 23 21 19 18 18 17
26 24 23 26 27 27 29 28 29 31 31 31 32 33 31 30 30 30 32 32 30 28 27 25 24 23 23 23 21 20 19 18 18 18 17 18 18 17 16 15 14 12 12 16 18 15 13 13 10 8 7 8 10 10 10 12 14 16 16 17 17 16 15 14 14 14 13 12 12 10 9 9 8 8 8 9 13 20 24 24 23 20 19 19 17
29 28 27 27 27 27 29 30 30 31 32 33 33 33 32 30 30 31 32 32 30 28 26 25 25 24 24 23 21 20 18 16 16 16 17 17 16 15 14 13 13 12 12 15 19 18 15 13 10 8 8 9 10 11 11 12 14 16 17 17 16 16 15 14 14 13 12 11 11 10 11 11 11 10 9 11 18 22 23 24 24 21 18 17 15
31 31 28 26 26 26 28 30 30 31 33 34 34 33 30 29 30 31 32 32 30 27 25 25 26 26 24 22 20 18 15 15 16 16 16 16 15 14 13 13 12 11 12 14 17 18 15 12 10 9 8 9 11 12 13 13 13 15 17 16 15 14 14 14 14 13 11 10 10 11 13 14 13 13 12 15 19 20 19 21 22 22 19 15 12
30 29 26 26 26 27 28 28 30 32 32 32 33 32 30 28 28 30 31 30 29 26 26 27 28 26 23 22 21 17 15 15 17 17 17 15 15 14 13 14 13 12 12 13 14 15 15 13 11 10 9 9 11 11 12 13 13 14 16 15 13 12 11 12 12 12 12 12 11 11 13 15 14 14 15 16 18 17 17 17 16 16 16 15 13
26 24 25 26 27 27 28 28 29 31 32 31 30 30 29 28 28 29 29 28 27 26 27 29 27 24 23 23 20 17 16 16 17 18 17 16 15 13 12 14 14 13 13 14 14 15 15 14 12 11 10 10 12 11 11 12 12 13 13 13 12 11 11 11 11 13 14 14 13 13 13 12 12 13 15 16 16 15 14 14 13 11 9 11 14
22 21 23 26 26 26 27 27 27 29 30 29 28 28 28 28 28 28 28 27 27 26 27 28 26 23 24 23 20 17 16 16 17 18 18 17 15 13 12 13 14 13 13 15 16 16 16 15 13 12 12 12 14 14 14 15 15 15 15 14 14 14 14 14 13 15 17 17 15 15 14 13 11 12 14 14 13 13 14 15 15 13 8 4 8
20 20 23 25 26 25 25 25 25 26 26 26 26 26 27 28 28 28 27 27 25 25 25 24 24 24 24 21 19 17 16 16 17 18 18 16 14 13 12 12 12 13 14 16 17 17 17 16 15 15 15 16 17 18 18 18 18 18 17 17 17 16 16 16 15 15 17 17 16 16 15 14 13 13 14 13 12 11 12 16 18 17 14 9 4
17 18 21 24 24 24 24 23 23 23 23 24 24 25 26 28 29 27 26 25 24 23 22 22 24 25 24 21 19 17 16 17 18 19 17 15 14 13 11 11 11 13 15 17 18 19 19 18 18 18 18 19 19 19 19 19 18 18 17 17 17 16 15 16 16 15 14 15 16 16 16 14 14 14 13 12 10 9 8 11 16 20 20 15 9
8 13 18 21 22 22 22 23 23 22 22 23 23 23 24 26 27 26 26 26 23 22 22 23 24 24 23 21 20 18 18 18 19 18 15 14 14 12 10 9 10 12 15 18 19 20 20 20 19 19 19 19 19 19 19 19 18 17 16 15 15 14 14 13 14 13 13 13 14 17 17 15 14 13 12 11 10 9 6 6 12 21 23 18 12
4 5 9 15 18 19 19 19 18 16 18 21 22 22 23 24 25 25 26 27 24 23 24 25 25 24 23 22 21 20 19 19 19 17 13 13 14 11 9 8 9 12 15 17 19 20 20 19 19 19 19 18 18 18 18 17 17 16 16 15 14 13 13 13 13 13 13 13 14 16 17 16 14 14 13 12 10 8 8 8 12 18 21 17 11
4 3 2 5 8 9 10 10 8 7 10 14 17 20 22 23 23 23 24 26 25 24 25 25 25 25 25 24 22 21 21 20 18 15 13 14 14 11 10 10 9 12 15 15 17 19 19 18 19 19 18 18 17 17 17 15 14 14 15 15 14 12 12 12 13 13 13 14 15 16 17 16 15 14 12 10 9 9 9 12 15 17 17 14 10
9 8 6 7 8 9 11 11 8 8 7 8 13 18 21 23 22 21 21 23 23 22 23 25 25 26 26 24 22 22 24 22 18 15 15 15 15 13 12 11 10 13 16 15 15 17 17 18 18 17 18 17 16 15 15 14 13 13 13 14 13 11 10 11 11 12 13 14 15 16 16 16 15 14 12 11 11 10 10 12 15 17 17 15 12
13 15 15 13 11 11 12 12 11 11 10 8 11 14 18 22 23 22 22 22 21 22 25 25 24 26 26 21 20 22 22 19 16 16 17 17 16 14 13 12 11 14 16 16 16 16 17 18 17 16 16 17 16 14 13 13 14 14 14 13 12 10 10 10 10 11 11 12 12 13 15 16 15 14 13 14 13 11 11 12 12 14 14 14 13
15 18 18 15 14 13 14 14 12 11 10 9 9 11 13 15 16 18 20 20 20 21 24 26 25 26 26 21 20 21 20 19 19 19 18 17 16 14 14 13 13 15 17 18 17 18 18 18 17 16 15 15 14 13 11 11 13 15 15 13 11 10 9 10 11 11 10 10 10 11 13 14 16 15 15 16 15 12 12 13 13 12 12 11 11
18 18 18 17 16 16 15 15 13 10 9 9 9 10 11 10 9 10 13 15 17 19 22 25 25 25 27 25 23 21 22 22 22 21 20 18 16 15 16 17 16 15 18 19 19 20 19 18 17 16 14 13 12 12 11 10 11 13 15 14 11 10 9 10 12 12 12 11 11 11 10 12 14 15 15 16 17 15 13 13 14 13 12 10 10
24 23 21 19 18 15 15 15 14 12 9 9 10 10 10 9 9 11 11 12 14 17 17 19 20 20 23 25 23 21 22 22 20 19 19 17 17 19 18 18 18 18 19 21 20 20 19 18 17 16 15 14 13 12 12 12 12 12 13 13 12 11 10 10 13 14 14 14 14 14 12 13 14 15 15 16 16 16 15 14 14 13 12 11 10
27 26 24 21 18 15 13 12 11 12 12 11 11 11 10 10 10 10 11 12 13 14 13 13 15 18 20 22 23 22 22 21 19 18 17 15 17 19 19 18 19 20 21 21 20 19 18 18 18 17 17 16 15 14 14 14 14 13 13 14 14 13 12 12 13 15 16 16 16 16 16 15 15 15 15 15 14 14 14 14 14 14 13 13 12
29 28 27 25 21 17 14 12 10 11 12 12 11 10 9 10 9 9 9 11 11 12 11 10 13 17 21 22 24 24 23 21 20 19 19 19 18 18 17 17 19 20 20 21 20 19 18 18 18 19 19 18 17 16 14 14 14 14 14 16 16 15 14 14 14 16 18 18 17 17 17 17 16 16 16 15 14 13 13 12 13 14 14 14 13
29 29 29 28 26 23 19 16 14 11 11 12 12 12 10 10 9 8 9 10 10 10 11 11 12 16 19 21 23 24 23 23 21 20 20 20 19 18 17 18 19 20 19 20 20 19 18 18 18 18 19 18 17 17 16 15 15 15 15 16 17 17 17 16 16 17 18 19 19 18 17 17 16 16 16 16 15 14 14 13 12 13 14 14 14
29 30 30 30 30 29 26 24 20 15 13 12 12 14 13 12 10 9 10 10 10 11 12 12 12 14 17 19 21 22 22 22 22 20 21 21 19 19 19 19 19 20 20 20 19 19 19 19 19 19 19 19 18 18 17 17 17 16 16 16 17 18 18 18 18 17 17 18 18 18 17 16 16 16 16 16 16 15 15 13 12 12 12 12 12
31 31 32 32 32 32 31 29 26 21 18 15 12 13 14 14 12 10 10 11 12 12 12 12 11 11 13 15 17 19 20 21 20 20 22 22 22 21 20 20 20 21 20 20 20 20 20 20 21 21 20 20 20 19 19 18 17 16 16 16 18 18 18 17 15 14 15 16 18 18 17 16 16 16 16 16 15 14 13 12 11 11 10 10 9
30 31 32 33 32 33 33 33 32 28 22 17 14 13 14 15 16 14 13 13 13 12 11 11 10 9 8 9 11 14 17 18 18 19 21 22 23 23 21 21 21 21 21 20 20 20 21 21 22 22 21 22 21 21 20 19 18 17 16 17 17 17 16 15 13 13 15 17 18 17 16 16 16 16 16 15 14 13 12 12 11 9 9 8 8
26 26 27 28 28 29 31 32 33 32 28 23 20 19 19 20 20 21 20 18 16 13 13 13 12 10 9 9 10 11 13 14 15 16 18 21 24 25 23 22 22 21 21 20 20 20 21 21 22 22 22 22 22 21 21 20 19 19 18 17 16 16 17 16 15 15 16 17 18 17 16 15 15 14 14 13 13 13 12 11 9 8 8 7 7
20 20 19 19 20 21 22 24 26 28 30 30 28 27 28 28 27 26 25 23 20 18 16 14 13 11 11 10 10 11 11 12 12 12 14 16 19 19 20 22 22 22 21 20 20 20 21 21 21 22 22 21 21 21 21 20 20 19 17 17 18 19 19 19 17 17 18 18 18 17 15 15 14 13 13 13 12 12 12 10 9 8 8 8 8
16 15 13 14 14 14 14 15 16 18 21 25 26 27 28 30 28 27 27 26 25 23 20 18 16 15 13 12 11 10 10 10 9 8 7 7 8 9 11 14 17 18 19 19 19 19 20 20 21 21 21 21 21 21 21 20 18 17 17 19 20 20 20 20 19 19 19 18 17 15 15 14 13 12 12 11 10 9 10 10 9 8 9 9 9
13 12 9 7 8 8 8 8 9 11 13 15 19 21 23 25 24 23 23 25 25 24 22 20 19 18 16 15 14 12 10 9 8 6 5 3 2 3 5 7 9 11 12 13 15 16 17 18 19 19 19 19 19 18 17 16 16 17 19 20 20 20 20 20 20 19 18 17 16 14 13 14 13 12 11 10 9 9 9 9 9 9 10 10 11
14 11 9 7 5 3 3 3 2 5 8 7 9 13 15 17 17 16 16 18 20 19 18 18 18 17 16 15 15 14 12 11 9 6 5 4 3 2 3 4 5 6 8 9 11 12 13 14 14 15 15 15 14 14 15 16 17 19 20 20 20 20 20 20 20 19 18 17 16 15 14 14 13 12 11 10 9 8 8 8 8 9 10 11 12
16 14 12 11 10 8 6 3 3 4 5 3 1 2 4 7 9 8 8 10 12 11 10 11 12 13 13 13 13 13 12 11 10 8 6 6 6 5 4 4 4 5 6 7 8 9 9 10 11 12 13 13 13 13 15 17 18 19 20 21 22 23 23 22 22 21 20 19 18 17 16 16 15 13 12 11 10 9 8 8 8 9 10 11 13
17 15 12 11 10 11 10 8 8 7 6 3 2 2 1 2 2 1 1 3 4 4 3 3 4 5 6 7 8 9 9 9 9 9 8 8 7 7 6 6 6 6 8 9 9 9 9 9 11 12 13 14 14 14 15 17 19 20 21 23 24 25 24 24 23 21 20 19 18 17 17 18 16 15 13 13 12 10 9 8 8 8 9 11 13
13 12 10 8 7 7 7 6 7 7 7 6 4 3 3 1 2 3 4 5 6 6 5 5 5 5 4 3 3 3 4 5 6 7 8 9 9 8 7 7 7 7 8 10 11 11 12 12 13 14 14 15 15 15 16 18 19 20 21 24 26 26 24 24 23 22 20 18 16 16 17 17 16 15 14 13 11 9 9 8 8 9 10 12 13
8 8 7 5 5 5 5 5 4 4 5 5 5 4 3 3 3 3 4 5 7 9 10 10 10 11 11 11 10 10 9 10 9 7 6 8 8 7 8 9 7 7 7 8 10 12 13 14 16 17 18 18 18 17 16 16 18 20 22 24 26 27 25 24 23 23 22 20 17 16 17 17 16 15 14 12 10 9 8 8 9 10 11 11 12
8 8 6 5 4 4 4 4 5 5 5 5 5 3 2 3 3 4 5 6 7 9 10 11 12 13 13 14 14 14 13 13 12 12 11 12 12 12 13 14 14 13 10 9 9 11 12 14 16 18 20 22 23 21 20 19 19 20 21 24 25 26 26 25 23 23 24 23 21 20 20 18 17 17 15 13 10 9 8 8 9 10 12 12 13
9 9 7 5 5 7 7 7 7 7 7 5 4 3 2 2 3 5 7 8 8 9 10 11 12 13 14 15 16 17 17 15 14 15 17 17 17 17 17 16 17 19 18 15 13 12 13 15 16 17 19 21 23 26 27 24 22 22 23 23 24 26 26 26 25 24 25 26 24 22 22 21 19 18 17 14 12 10 9 9 9 11 12 12 12
8 8 8 7 8 8 7 6 6 5 5 4 4 4 4 3 4 4 5 6 7 8 8 9 10 12 13 15 16 17 17 17 17 17 19 20 20 21 20 17 16 18 20 19 18 16 15 16 18 18 18 18 22 30 33 29 25 24 24 24 26 28 28 27 25 23 25 27 25 24 24 23 21 19 16 13 12 10 9 9 10 11 11 11 11
9 8 7 7 7 6 4 4 4 4 4 5 5 5 5 5 6 6 6 7 7 8 8 9 9 9 10 11 13 14 14 15 16 17 18 20 22 23 24 23 22 21 21 20 21 20 19 19 21 22 21 20 23 29 32 29 26 26 27 28 29 29 29 29 28 25 24 26 27 26 25 24 21 18 15 13 11 10 10 10 11 11 10 10 10
5 4 4 3 3 3 3 4 4 4 5 6 7 8 8 8 9 9 9 9 9 9 10 10 11 11 11 11 12 12 12 11 12 12 14 17 19 21 21 21 22 23 23 23 24 23 21 20 21 22 23 24 26 27 26 26 27 29 33 33 31 31 32 29 26 25 25 26 27 27 26 24 20 16 13 12 11 11 12 12 12 11 10 9 9
1 2 2 1 1 2 3 5 6 6 7 9 11 12 13 14 14 14 14 13 13 12 12 12 13 13 13 13 13 13 12 12 11 10 11 12 14 16 17 17 17 18 19 21 24 24 22 21 22 21 20 21 25 26 26 27 28 32 36 33 27 27 25 15 10 16 22 23 24 26 25 22 18 14 13 13 14 14 14 13 11 10 9 9 9
1 2 2 2 3 5 6 8 10 11 12 14 15 16 17 18 18 19 19 18 17 17 16 16 16 16 16 16 15 15 14 14 13 13 13 13 13 14 14 15 16 16 17 18 20 21 22 22 23 24 21 18 19 21 22 24 25 28 31 29 25 22 19 12 9 16 21 21 22 25 25 21 18 16 15 14 14 14 14 13 12 11 10 9 9
2 3 5 7 9 10 11 13 14 16 16 16 17 17 18 18 18 19 19 17 17 17 16 16 17 17 17 17 17 17 16 16 16 15 15 16 16 16 16 15 15 16 18 19 19 19 18 18 20 22 22 20 18 19 21 21 20 21 22 21 21 20 19 18 18 22 25 25 26 25 24 21 20 18 15 14 14 14 14 13 12 12 11 10 9
Wind_Direction
152 152 152 150 154 157 160 166 172 179 181 175 173 173 174 175 172 170 169 170 169 169 171 172 173 177 180 180 180 178 174 171 167 165 166 169 174 176 175 172 172 171 167 167 170 167 163 167 172 173 176 179 179 178 176 177 180 181 180 180 187 184 169 170 179 183 185 159 148 151 153 157 162 163 166 172 178 186 184 176 180 188 191 193 198
151 151 153 155 157 157 163 172 178 183 184 179 176 175 176 177 176 175 173 173 173 172 175 176 178 180 181 180 177 171 165 164 163 162 164 165 168 168 160 157 161 164 164 164 164 161 159 163 167 166 165 166 168 170 166 164 170 170 168 177 184 177 166 167 174 186 191 174 157 154 148 146 155 160 161 165 164 168 177 179 182 191 195 196 202
154 156 159 161 161 163 170 178 184 191 188 180 177 176 176 176 177 178 175 174 173 174 177 178 179 181 183 179 170 161 158 161 161 159 161 160 159 156 151 155 158 159 159 157 157 155 154 156 157 157 155 154 157 157 154 156 158 153 155 169 176 173 168 165 169 188 193 180 172 162 151 149 151 152 155 159 161 160 167 174 183 193 195 197 202
159 160 163 164 167 171 177 182 187 192 187 178 178 179 175 174 176 178 175 174 174 176 177 175 173 174 176 172 163 159 159 162 161 156 158 162 160 155 154 152 149 152 154 155 159 157 155 155 154 154 153 152 155 155 153 154 153 152 161 167 170 172 174 174 172 180 189 181 175 165 155 155 155 161 161 155 158 158 156 160 173 187 188 192 199
161 163 166 169 174 178 181 183 186 191 186 178 180 181 177 174 176 176 175 174 175 175 173 169 167 166 166 165 164 166 167 169 169 158 153 156 154 152 150 145 146 153 152 157 166 165 163 163 161 157 155 156 160 165 169 167 162 161 166 167 168 171 175 182 176 170 176 184 183 174 165 168 174 171 159 146 149 152 149 153 165 170 167 178 192
164 166 170 175 179 179 182 184 186 189 184 178 182 184 182 179 177 175 173 174 174 172 170 168 168 169 170 171 173 177 176 175 171 160 153 154 153 152 149 144 146 147 142 153 157 152 149 148 152 155 156 160 164 173 181 179 169 160 164 169 166 169 170 175 175 170 172 178 186 191 193 198 186 171 155 139 136 140 145 146 152 156 145 152 169
169 170 174 178 180 180 182 185 186 187 183 181 184 186 186 183 178 175 174 173 172 171 172 172 172 173 174 177 179 181 177 172 171 165 164 165 161 155 151 150 147 132 133 152 146 136 132 131 137 145 149 161 170 179 185 188 178 146 150 162 161 164 164 164 168 169 173 175 181 198 208 206 191 181 169 154 141 137 144 141 140 144 139 141 153
172 175 179 179 180 182 183 183 185 188 185 183 184 185 186 184 180 178 175 174 173 175 176 176 176 175 174 175 174 174 173 172 173 170 167 169 164 158 159 160 161 159 153 158 153 144 138 136 143 147 149 161 171 177 184 195 188 146 139 148 155 156 154 159 162 161 172 178 179 190 191 178 180 189 190 178 156 145 143 139 137 138 136 136 139
174 179 181 180 181 182 181 180 184 188 187 185 183 183 184 185 184 181 178 176 176 178 179 178 180 180 178 175 170 169 170 167 166 165 165 168 167 163 165 166 171 179 169 166 167 155 143 147 154 152 151 160 168 176 177 172 162 146 136 141 148 147 145 150 152 151 165 176 177 182 180 172 173 175 184 189 168 151 146 145 140 134 127 120 119
175 182 183 181 179 177 176 178 183 188 188 187 183 181 184 186 185 183 180 178 179 181 182 181 185 187 184 180 176 173 168 161 161 164 167 171 173 170 169 172 176 183 180 176 178 163 148 157 164 155 153 166 180 184 167 154 150 144 139 141 141 139 140 143 141 139 144 152 163 177 182 178 176 177 179 182 171 155 149 147 141 132 124 117 113
175 182 184 182 177 172 175 178 183 187 190 190 184 182 186 186 186 185 181 179 182 183 183 183 188 191 189 186 186 181 171 164 164 167 171 174 177 177 179 184 187 195 192 176 174 166 157 165 169 161 161 165 167 166 159 154 151 146 145 146 143 140 141 141 138 135 134 134 138 153 175 183 185 185 178 176 174 159 148 143 136 128 121 115 110
175 178 183 183 177 172 174 178 183 187 191 192 186 184 188 187 186 185 181 181 184 183 181 184 187 191 193 194 194 187 177 171 169 170 175 178 182 186 189 193 192 191 182 170 170 170 167 168 171 171 164 147 147 152 156 158 156 151 150 150 149 146 145 145 142 139 137 137 135 138 152 167 177 180 169 172 177 160 147 140 134 128 121 114 109
175 178 183 181 176 174 176 180 185 188 191 192 188 188 190 188 186 185 182 182 185 183 182 186 190 195 199 198 193 185 181 178 176 177 180 183 187 188 188 188 182 169 162 167 171 174 175 178 180 179 155 132 130 137 147 159 162 159 154 154 155 151 150 151 147 144 142 139 135 132 134 138 144 154 159 164 164 155 146 139 135 132 125 118 115
176 181 185 180 176 175 178 183 187 188 189 190 190 191 192 189 186 185 184 184 187 186 186 190 193 194 195 195 189 184 183 183 184 186 185 184 184 182 184 184 177 164 158 165 173 179 186 188 186 172 147 131 127 126 131 144 158 163 161 160 159 156 156 155 149 149 149 142 135 130 125 124 127 137 147 156 158 155 150 143 137 132 126 122 120
176 178 179 177 175 175 179 186 190 191 190 190 191 194 194 190 186 185 186 188 189 188 189 190 188 187 189 192 190 188 189 189 191 191 185 181 179 183 189 188 184 175 163 161 170 181 188 187 181 167 149 138 136 132 127 129 138 151 160 164 162 161 163 161 156 155 153 147 139 132 127 123 122 131 141 153 159 157 153 147 141 136 132 131 132
177 173 171 174 175 175 179 187 192 194 195 193 192 194 194 190 187 187 188 191 191 189 189 187 184 185 189 192 193 195 196 193 191 189 185 183 183 187 187 185 185 176 165 161 164 173 180 180 176 168 154 140 140 140 134 130 129 134 146 153 150 148 153 159 163 162 153 144 137 133 132 127 124 126 135 148 156 155 153 151 151 145 136 140 153
178 171 170 177 179 177 180 186 192 196 197 197 195 194 193 191 189 188 190 194 193 190 189 187 186 188 190 191 195 198 196 192 188 187 187 187 186 186 181 177 174 166 160 161 161 165 171 173 171 163 151 138 138 140 135 133 131 129 132 131 125 121 125 136 150 152 147 143 140 138 135 132 133 133 135 144 153 160 163 164 170 170 144 138 154
175 171 170 177 181 182 181 183 191 198 198 199 198 194 190 189 189 190 193 196 194 191 190 188 189 192 191 191 193 193 193 190 188 188 186 184 184 185 180 169 163 160 158 158 159 163 166 169 167 157 147 139 136 135 132 130 127 126 123 117 111 109 112 120 133 144 147 146 147 146 140 133 137 142 141 145 155 168 179 184 186 187 190 172 146
173 171 171 176 181 187 185 183 190 197 197 196 196 194 191 189 190 191 195 198 196 194 194 191 191 194 194 191 190 193 196 191 188 188 184 183 187 187 180 167 161 162 160 157 158 159 161 164 162 154 145 140 136 133 130 129 127 125 122 118 114 112 112 115 123 139 151 155 156 154 149 141 141 148 148 148 156 167 180 192 195 194 201 213 186
172 168 171 173 176 184 185 182 187 193 195 194 193 193 194 194 192 191 194 196 195 195 196 194 193 193 192 189 188 194 197 190 185 185 182 186 190 185 178 170 168 170 165 158 156 156 157 157 154 149 144 139 137 135 133 131 130 128 126 124 123 122 121 121 123 130 142 158 165 164 160 156 154 160 161 160 167 171 174 188 196 199 204 209 209
150 158 167 170 170 175 179 182 187 190 192 196 195 194 197 198 195 193 191 191 191 193 193 192 192 188 183 185 190 193 191 184 180 181 184 191 191 185 184 179 177 181 172 160 156 157 155 154 150 146 144 141 139 139 137 136 135 133 133 134 134 135 135 134 134 132 132 146 164 168 170 172 173 177 179 182 187 187 183 174 183 194 201 205 210
79 132 160 168 171 172 174 180 185 186 190 197 201 201 202 202 198 193 190 188 191 194 194 196 198 191 183 186 190 187 183 179 177 178 186 192 188 187 192 190 188 191 180 163 159 161 158 155 152 148 146 146 145 144 145 147 148 146 145 145 147 150 152 152 151 148 143 145 157 167 174 177 181 184 185 188 191 186 180 165 167 186 195 198 204
119 118 141 147 152 152 147 148 155 171 190 200 206 211 211 207 200 195 193 193 196 200 199 200 197 190 188 189 187 184 183 180 176 179 189 191 188 193 198 194 196 195 185 172 167 168 164 159 158 156 155 154 154 153 154 159 164 161 157 156 159 163 165 166 164 162 159 158 161 167 173 177 180 184 184 183 181 175 169 161 160 173 186 186 185
113 121 119 93 86 92 96 99 107 120 144 178 198 208 211 210 208 206 204 202 202 204 202 197 188 184 186 185 180 182 181 176 174 179 187 190 194 202 200 193 198 197 189 180 175 173 169 166 166 166 165 163 165 166 166 171 176 177 173 168 168 172 176 176 176 173 170 169 170 174 178 183 187 189 187 181 174 170 170 168 165 169 178 181 175
113 113 113 104 99 99 96 95 96 97 109 143 176 194 205 212 215 213 209 207 204 204 206 203 191 184 186 182 177 177 173 170 176 182 188 194 197 201 202 200 200 199 193 186 180 177 174 173 174 175 174 174 176 181 182 182 184 187 188 183 179 183 188 190 190 187 183 179 179 184 189 192 196 195 189 182 179 176 176 180 183 180 183 185 181
125 121 120 120 123 120 111 105 100 94 100 120 149 172 185 200 210 210 210 212 211 208 210 213 205 191 189 194 193 186 179 181 190 193 195 195 192 197 210 217 212 204 199 192 185 183 183 182 182 180 181 184 188 194 195 191 190 191 194 195 192 193 200 205 205 203 204 203 196 196 199 201 201 202 197 190 189 190 186 187 193 194 192 189 186
116 121 123 127 130 130 124 117 111 106 106 112 123 138 150 157 165 181 201 215 220 219 216 217 211 194 188 196 199 192 189 194 198 200 199 195 199 209 216 221 220 211 202 196 192 192 192 191 191 190 189 194 201 205 204 203 200 196 196 199 201 206 214 217 214 213 217 221 217 213 215 214 207 205 204 200 197 198 196 192 194 199 199 194 192
103 110 116 122 126 128 126 123 119 118 123 126 122 123 129 136 142 158 178 195 208 216 218 217 213 199 189 193 196 193 192 196 200 203 201 203 215 219 213 214 217 209 202 201 200 199 200 200 199 198 199 203 211 216 220 224 222 212 208 209 213 222 228 226 223 222 224 226 225 226 229 225 216 209 210 209 204 204 204 198 197 202 206 207 205
90 96 103 109 113 116 119 121 121 119 122 128 130 133 138 141 147 159 167 173 184 198 206 209 208 206 200 198 198 196 193 196 203 208 209 209 212 208 201 203 207 203 201 203 203 203 206 206 205 205 207 210 215 223 233 236 233 231 230 227 228 233 233 231 232 232 231 230 229 230 228 224 221 217 216 215 210 207 207 204 201 204 210 215 215
78 83 90 93 96 102 107 110 109 112 119 127 137 144 144 145 152 160 164 164 169 181 195 199 199 205 208 207 207 205 204 207 214 219 220 214 206 203 201 200 202 201 201 203 205 206 208 210 210 210 212 216 220 227 235 239 238 242 243 238 239 242 240 240 244 243 239 234 229 229 226 221 221 219 216 216 214 209 209 210 207 205 206 210 214
75 80 86 88 89 91 93 95 95 102 115 126 140 147 146 148 154 161 169 172 176 186 196 198 194 199 206 209 211 214 216 217 219 225 225 215 207 208 207 201 201 204 203 203 207 209 212 216 217 217 219 224 229 234 239 242 244 249 248 242 241 243 244 249 253 250 244 236 228 224 220 216 217 217 214 214 214 213 214 217 216 211 210 214 218
76 80 84 86 86 85 84 87 91 101 115 125 141 147 144 144 146 146 149 156 171 188 199 203 201 200 203 206 209 212 215 217 217 219 220 215 213 214 211 204 203 205 207 209 211 214 218 221 223 226 228 231 236 241 244 247 248 250 249 245 241 242 247 254 256 249 238 226 217 213 211 210 213 214 214 216 216 215 217 220 220 216 214 217 220
77 80 83 83 82 81 81 83 88 98 112 124 136 134 129 131 134 134 137 140 149 164 181 193 196 198 203 206 209 211 213 215 214 213 215 216 217 217 214 210 209 209 213 215 216 220 224 226 228 230 233 237 242 244 246 250 250 249 250 247 243 245 249 249 244 232 216 203 201 203 205 205 207 207 209 212 213 215 217 215 211 207 207 210 215
78 79 80 81 80 80 81 82 84 89 101 118 127 121 119 124 125 124 127 129 132 140 153 161 160 164 176 185 196 203 207 209 209 209 214 217 217 217 216 215 213 213 216 220 222 224 227 230 233 235 239 244 247 246 248 251 250 252 257 252 243 238 234 225 212 199 190 188 193 199 200 198 196 197 199 201 203 206 207 204 201 204 209 214 218
76 75 77 78 77 76 78 79 81 84 91 102 108 106 108 112 114 115 114 113 115 122 133 140 140 143 149 152 167 184 193 201 206 207 210 214 217 219 219 220 220 220 222 225 228 231 233 235 238 241 245 248 249 248 249 250 252 258 259 247 231 217 209 203 195 184 180 185 191 194 195 194 192 193 195 198 200 200 200 203 210 218 222 224 226
68 62 59 62 65 66 68 71 73 77 84 92 97 99 101 103 105 107 104 103 106 109 115 125 130 133 138 144 158 172 177 185 195 200 206 212 217 220 224 227 229 231 233 237 240 241 241 242 244 247 249 250 249 249 250 252 254 254 244 223 209 201 197 197 194 185 182 188 192 192 192 192 194 197 199 199 201 204 207 216 227 233 235 237 241
77 68 51 40 41 48 55 61 62 62 69 82 91 96 99 99 100 100 98 98 99 97 97 104 110 115 122 129 139 151 157 163 167 169 182 201 211 217 224 229 233 235 237 241 243 243 243 245 248 250 250 249 249 249 249 249 245 232 215 203 200 199 197 198 197 192 191 196 200 201 199 198 199 199 201 206 216 223 227 233 241 247 251 253 255
95 95 82 53 32 26 22 36 53 45 44 66 84 91 96 97 96 97 98 98 96 93 91 93 97 102 107 113 118 124 135 148 152 147 149 161 174 202 221 228 235 239 238 238 239 239 242 246 247 248 248 247 246 243 238 230 217 206 201 199 202 204 205 205 204 201 200 204 208 209 208 209 210 211 216 228 241 246 244 243 249 257 262 263 265
87 90 90 88 75 39 347 320 26 34 24 47 79 86 90 93 93 96 101 99 95 92 90 90 93 97 100 104 107 109 115 126 132 138 149 153 150 164 207 229 241 244 241 242 242 239 240 242 240 239 238 236 233 226 216 206 200 199 202 206 209 213 214 213 210 207 205 206 209 212 213 215 219 222 227 233 237 239 241 245 250 257 262 265 266
82 80 78 79 76 73 74 83 88 59 31 12 48 83 98 104 98 97 102 96 87 81 84 89 94 100 104 109 112 114 117 123 128 132 140 155 168 177 187 203 219 231 234 233 233 234 235 231 230 231 227 219 214 210 207 204 202 205 212 217 220 220 218 216 214 214 215 215 215 217 221 225 226 224 222 220 219 225 232 240 247 252 257 260 263
88 85 80 76 70 69 71 71 69 66 59 49 0 320 199 171 170 161 73 49 46 44 65 103 114 115 118 122 127 132 134 137 144 147 150 159 171 185 200 208 215 235 250 246 239 242 244 234 228 227 222 216 216 217 218 217 215 217 223 225 223 219 216 216 217 218 221 221 222 224 227 225 222 219 217 217 220 226 233 241 249 253 251 251 254
104 100 96 88 80 77 75 65 54 47 44 44 35 26 43 32 289 282 290 301 303 301 293 275 257 252 254 258 242 215 204 196 182 171 168 170 170 176 188 194 200 221 245 251 249 252 255 249 241 238 233 229 227 227 228 227 226 225 225 224 220 215 213 216 219 221 223 223 224 226 223 218 214 214 216 219 225 232 237 244 253 257 255 252 252
107 105 106 106 97 86 74 56 43 26 14 11 6 9 22 14 349 336 313 294 285 284 287 285 279 275 276 281 284 280 271 260 251 239 214 205 211 217 212 210 213 218 227 238 245 250 255 255 250 246 243 240 236 231 229 230 231 228 223 221 220 218 218 219 222 224 225 225 225 223 218 215 216 217 218 223 230 235 238 247 257 262 263 260 258
83 83 89 99 97 77 59 42 30 26 19 10 5 1 340 313 311 307 300 292 281 274 274 276 278 278 277 278 279 279 278 272 263 259 253 247 250 253 244 237 235 236 238 243 246 247 251 254 252 249 246 243 240 237 235 230 226 226 225 223 224 226 226 225 223 224 225 226 227 225 220 219 220 218 218 225 230 230 235 246 258 264 267 266 265
63 62 61 63 51 39 40 46 45 43 40 31 24 22 358 309 293 288 286 285 280 274 270 268 269 270 271 271 270 268 268 268 263 261 261 260 258 258 256 252 246 245 249 256 260 257 257 261 260 252 248 246 242 240 238 231 224 226 228 229 230 233 234 233 230 227 226 227 228 225 221 220 218 215 216 219 219 220 229 243 257 265 268 272 274
32 31 34 38 39 35 38 49 53 44 28 13 6 5 6 0 341 327 319 310 302 299 294 285 277 273 271 271 271 269 267 265 262 260 259 260 261 260 261 263 260 254 253 255 258 257 258 266 266 254 246 245 242 240 236 227 221 225 229 231 233 233 234 237 236 228 221 223 225 224 221 216 212 211 214 214 213 217 230 246 260 269 272 275 277
21 30 39 37 35 34 29 30 37 28 7 351 344 343 345 342 336 334 332 328 325 324 322 317 311 302 293 285 280 278 275 271 267 262 257 255 256 257 259 261 262 259 255 253 254 253 250 255 262 258 250 247 249 248 240 229 225 231 234 232 232 232 235 238 236 226 216 215 220 222 218 211 208 209 212 212 214 223 235 249 261 270 276 278 276
34 55 55 31 15 5 354 351 352 349 335 323 318 316 314 312 312 312 312 313 315 316 316 316 316 313 310 304 297 291 287 282 274 267 260 255 252 252 255 258 260 260 257 253 254 255 252 251 255 256 253 251 254 256 247 234 233 239 238 233 228 228 232 233 228 220 212 208 213 216 211 204 204 208 211 214 220 229 238 250 261 269 274 275 274
24 354 340 321 303 308 314 314 310 307 303 301 301 301 301 301 300 298 298 297 297 298 298 299 301 303 303 303 301 297 295 291 284 275 264 257 254 253 255 256 257 259 260 257 255 256 256 254 252 250 251 255 258 258 252 244 243 245 246 245 237 227 226 226 210 207 207 204 207 210 206 203 206 215 219 223 229 235 241 250 261 267 266 265 268
285 317 310 294 293 294 292 290 290 290 289 288 290 291 293 295 296 295 295 294 292 291 289 288 290 292 294 297 299 299 298 297 293 287 276 265 256 253 257 262 262 260 262 263 261 260 260 261 258 252 249 255 263 265 262 256 252 250 252 258 261 253 252 263 247 220 216 215 213 210 208 209 213 218 222 227 234 241 248 255 259 260 257 258 264
255 282 294 298 298 295 291 288 285 284 285 286 287 288 289 291 293 293 293 293 293 292 289 287 288 289 292 296 297 298 299 298 297 297 293 285 272 260 254 259 266 268 266 265 265 266 265 266 265 260 253 250 254 260 262 261 262 261 258 258 261 263 264 262 245 228 224 223 216 207 208 212 213 212 216 222 230 239 251 258 258 253 251 255 263